Address 0x871ea9af361ec1104489ed96438319b46e5fb4c6 5

 
Txn Hash
Block
From
To
Value [Txn Fee]
0x3a2c26f5eedb32d3e74c6fe72a5f399eb18db92e861b8c8e9c6dba8b746a7af126359302021-10-27 23:44:366 hrs 9 mins ago0x871ea9af361ec1104489ed96438319b46e5fb4c6OUT SushiSwap: Router0 ETH0.001810269849 ETH
0xa844cfebd12a7880f069d8a31a26e41e006b1ee2a7f04e1d71000b783cab0ab226357382021-10-27 23:36:026 hrs 17 mins ago0x871ea9af361ec1104489ed96438319b46e5fb4c6OUT 0x530476d5583724a89c8841eb6da76e7af4c0f17e1.262760871156455 ETH0.001458102573 ETH
0x0e9b3de4c680235ce5c67479916f94f2d981ac9738dd4c8860b4d4457f23ab0226353142021-10-27 23:16:556 hrs 36 mins ago0x871ea9af361ec1104489ed96438319b46e5fb4c6OUT SushiSwap: Router1.412610597996027 ETH0.001419860538 ETH
0xca4ee4919ef7f4165ccdfa3887f1bc8a48860b4e688efc2e83170ce9b31f4d6626347072021-10-27 22:47:147 hrs 6 mins ago0x871ea9af361ec1104489ed96438319b46e5fb4c6OUT SushiSwap: Router0 ETH0.001442980299 ETH
0xe146ec28df5d05538d61a677850994de5e9bf4cfb30d3b34c05144d0f7472de926346642021-10-27 22:46:057 hrs 7 mins ago0x871ea9af361ec1104489ed96438319b46e5fb4c6OUT SushiSwap: Router0 ETH0.001441170276 ETH
0x8566acbf65847970b4d3cb52c351c1053cf9bb0db941629cb6f3b0de611067ec26257492021-10-27 18:16:2211 hrs 37 mins ago0x871ea9af361ec1104489ed96438319b46e5fb4c6OUT 0x530476d5583724a89c8841eb6da76e7af4c0f17e0 ETH0.001289651625 ETH
0x62a58a6a68c8c3affd2fcb169175e1f93947d80d7a02ed7bbab0fdbcc090afd226226632021-10-27 16:34:3913 hrs 19 mins ago0x871ea9af361ec1104489ed96438319b46e5fb4c6OUT 0xc931f61b1534eb21d8c11b24f3f5ab2471d4ab500 ETH0.000892604269 ETH
0x7de2480f74fbe9f9e4793c8a1f58af8a39b0e61ae133fd1d34041355fd15eaad26207072021-10-27 15:29:0514 hrs 24 mins ago0x871ea9af361ec1104489ed96438319b46e5fb4c6OUT SushiSwap: Router1.320506374261586 ETH0.001215155054 ETH
0x4a02db494f46aba6af7c089c82d7768ea87dae28ed113aa82f133d7325c44eb926187122021-10-27 14:18:3515 hrs 35 mins ago0x871ea9af361ec1104489ed96438319b46e5fb4c6OUT SushiSwap: Router0 ETH0.00121893178 ETH
0x7fae1d2e44327359827af510649050e7750cfc2bab72655aba08f91eecd641c626132992021-10-27 11:21:0418 hrs 32 mins ago0x871ea9af361ec1104489ed96438319b46e5fb4c6OUT SushiSwap: Router0 ETH0.001022969492 ETH
0x9c03162e1a8342f8688b3f418f39b297803d3bb9c8badbbcc4492f016c98a72b26073742021-10-27 8:34:5321 hrs 18 mins ago0x871ea9af361ec1104489ed96438319b46e5fb4c6OUT SushiSwap: Router0 ETH0.001446850565 ETH
0xfe73113a111e93a7f84c93aca86c3eee1293eb1be9bd2b6038e46fdaaf07316f26063042021-10-27 8:14:3921 hrs 39 mins ago0x871ea9af361ec1104489ed96438319b46e5fb4c6OUT SushiSwap: Router0 ETH0.001456846842 ETH
0x3286492772b1a169a7b5a1e3fe4a2441c60e7da63ab2650c71b07e09f65c245b26058432021-10-27 8:09:0321 hrs 44 mins ago0x871ea9af361ec1104489ed96438319b46e5fb4c6OUT SushiSwap: Router0 ETH0.001448456306 ETH
0xbfa273c9149000eb37a8d5893fda7122f2b249c805b72171847e6c93ec86b98126058322021-10-27 8:09:0321 hrs 44 mins ago0x871ea9af361ec1104489ed96438319b46e5fb4c6OUT SushiSwap: Router0 ETH0.001450184492 ETH
0x4280ed89d50b69156762c549fada7d7241569d2ea90c37cafc4332dfbebbc06326058102021-10-27 8:08:1321 hrs 45 mins ago0x871ea9af361ec1104489ed96438319b46e5fb4c6OUT SushiSwap: Router0 ETH0.001448456306 ETH
0xefa4171d677e06b7d2ec2aec39bbe6e1b621b246b1b12a7b02f4ae16dd51196426057952021-10-27 8:08:1321 hrs 45 mins ago0x871ea9af361ec1104489ed96438319b46e5fb4c6OUT SushiSwap: Router0 ETH0.001450184492 ETH
0x909452261719897ca010211dc6618c7ae1485abebb8a29706606b1ed81f4ba6626052722021-10-27 8:01:1121 hrs 52 mins ago0x871ea9af361ec1104489ed96438319b46e5fb4c6OUT SushiSwap: Router0 ETH0.001448702269 ETH
0xe9095ca1354c676567d30d7ca514f6c1abe9790f74511f2f705000f5f35b30c526046222021-10-27 7:48:2722 hrs 5 mins ago0x871ea9af361ec1104489ed96438319b46e5fb4c6OUT SushiSwap: Router0 ETH0.001446020305 ETH
0x98a8ecd7ebd4e10f9ebdc8425497f5fa5824e05c03a0a396dd0143c7a9975b3126042872021-10-27 7:41:3722 hrs 12 mins ago0x871ea9af361ec1104489ed96438319b46e5fb4c6OUT SushiSwap: Router0 ETH0.001448702269 ETH
0xb48e1df4e5f89367caa92e7eb1239bdf518db2c3894800b7e21b8bf8d2afa19126014802021-10-27 6:22:4823 hrs 30 mins ago0x871ea9af361ec1104489ed96438319b46e5fb4c6OUT SushiSwap: Router1.186671677837497 ETH0.001165065583 ETH
0x03ca252bda0ef2d4f06af0ef70ccee4ee594973861cd910101cdcd28dd664c5a26012912021-10-27 6:19:2723 hrs 34 mins ago0x871ea9af361ec1104489ed96438319b46e5fb4c6OUT SushiSwap: Router1.205958654661445 ETH0.001165558109 ETH
0x48b976a56f83e18233d6730482d7ec545ecfc6847b36b8a74661eab1fe4686d326011632021-10-27 6:15:5123 hrs 37 mins ago0x871ea9af361ec1104489ed96438319b46e5fb4c6OUT SushiSwap: Router1.278861129739595 ETH0.001164080529 ETH
0x4f4262e1b7697ae1a27d78d238978f24d8ba28e329d3414434f8e24e510d5cb626009032021-10-27 6:08:3723 hrs 45 mins ago0x871ea9af361ec1104489ed96438319b46e5fb4c6OUT SushiSwap: Router1.212470491703343 ETH0.001162602949 ETH
0x84d425abe18a982a66b18bb28381161dcf0d04011fcd55adb1ef3b02e767e15525954772021-10-27 4:14:081 day 1 hr ago0x871ea9af361ec1104489ed96438319b46e5fb4c6OUT SushiSwap: Router3.622135056097326 ETH0.00094399847 ETH
0xa42f915bbeaf52eae3385b8e18274befe5d394825f17971577e0d07b0118d2b025934082021-10-27 3:43:071 day 2 hrs ago0x871ea9af361ec1104489ed96438319b46e5fb4c6OUT SushiSwap: Router2.494027194651263 ETH0.000942513906 ETH
[ Download CSV Export 
Parent Txn Hash Block From To Value
Loading

Contract Name:
0 ETH

Compiler Version
0

Optimization Enabled:
0 ETH

Other Settings:
-NA-
Block Transaction Gas Used Reward
Age Block Fee Address BC Fee Address Voting Power Jailed Incoming
Block Uncle Number Difficulty Gas Used Reward
Loading
Loading
Make sure to use the "Vote Down" button for any spammy posts, and the "Vote Up" for interesting conversations.